| time (UTC) | temp C | wind direction | speed KPH | gust KPH | rain 1hr cm | rain 24hr cm | rain mn cm | humidity % | barometer mb |
| 20260506123811 | 20 | 23 | 0.0 | 1.6 | 0.00 | 2.11 | 0.53 | 73 | 1005.6 |
| 20260506122739 | 19 | 23 | 0.0 | 1.6 | 0.00 | 2.11 | 0.53 | 75 | 1005.6 |
| 20260506121718 | 19 | 315 | 1.6 | 0.0 | 0.00 | 2.11 | 0.53 | 73 | 1005.7 |
| 20260506120656 | 19 | 315 | 4.8 | 11.3 | 0.00 | 2.11 | 0.53 | 73 | 1005.8 |
| 20260506115622 | 19 | 23 | 4.8 | 8.0 | 0.00 | 2.11 | 0.53 | 72 | 1005.6 |
| 20260506114554 | 20 | 23 | 8.0 | 12.9 | 0.00 | 2.11 | 0.53 | 73 | 1005.6 |
| 20260506113538 | 20 | 338 | 8.0 | 17.7 | 0.00 | 2.11 | 0.53 | 72 | 1005.6 |
| 20260506112536 | 20 | 248 | 6.4 | 16.1 | 0.00 | 2.11 | 0.53 | 66 | 1005.7 |
| 20260506111506 | 20 | 338 | 4.8 | 11.3 | 0.00 | 2.11 | 0.53 | 71 | 1005.6 |
| 20260506110440 | 19 | 270 | 1.6 | 14.5 | 0.00 | 2.11 | 0.53 | 73 | 1005.8 |
| 20260506105359 | 18 | 315 | 6.4 | 17.7 | 0.00 | 2.11 | 0.53 | 74 | 1005.7 |
| 20260506104324 | 18 | 0 | 6.4 | 19.3 | 0.00 | 2.11 | 0.53 | 73 | 1005.8 |
| 20260506103252 | 17 | 0 | 0.0 | 19.3 | 0.00 | 2.11 | 0.53 | 77 | 1005.9 |
| 20260506102219 | 17 | 0 | 0.0 | 0.0 | 0.00 | 2.11 | 0.53 | 78 | 1005.8 |
| 20260506101153 | 17 | 0 | 0.0 | 6.4 | 0.00 | 2.11 | 0.53 | 79 | 1006.0 |
| 20260506100157 | 17 | 0 | 3.2 | 11.3 | 0.00 | 2.11 | 0.53 | 79 | 1005.9 |
| 20260506094025 | 18 | 315 | 6.4 | 11.3 | 0.00 | 2.11 | 0.53 | 77 | 1005.8 |
| 20260506092958 | 18 | 338 | 4.8 | 14.5 | 0.00 | 2.11 | 0.53 | 80 | 1005.7 |
| 20260506091932 | 17 | 0 | 6.4 | 14.5 | 0.00 | 2.11 | 0.53 | 78 | 1005.7 |
| 20260506090906 | 17 | 0 | 6.4 | 12.9 | 0.00 | 2.11 | 0.53 | 78 | 1005.7 |
| 20260506085832 | 17 | 0 | 4.8 | 12.9 | 0.00 | 2.11 | 0.53 | 77 | 1005.6 |
| 20260506084802 | 17 | 0 | 8.0 | 12.9 | 0.00 | 2.11 | 0.53 | 81 | 1005.5 |
| 20260506083800 | 17 | 0 | 8.0 | 16.1 | 0.00 | 2.11 | 0.53 | 83 | 1005.4 |
| 20260506081702 | 15 | 0 | 6.4 | 12.9 | 0.00 | 2.11 | 0.53 | 87 | 1005.3 |
| 20260506080638 | 15 | 0 | 4.8 | 9.7 | 0.00 | 2.11 | 0.53 | 88 | 1005.3 |
| 20260506072513 | 13 | 0 | 3.2 | 6.4 | 0.00 | 2.13 | 0.53 | 89 | 1005.3 |
| 20260506071513 | 13 | 270 | 4.8 | 11.3 | 0.00 | 2.13 | 0.53 | 89 | 1005.4 |
| 20260506070451 | 13 | 225 | 4.8 | 14.5 | 0.00 | 2.13 | 0.53 | 89 | 1005.4 |
| 20260506062232 | 13 | 225 | 6.4 | 14.5 | 0.00 | 2.16 | 0.53 | 89 | 1005.4 |
| 20260506061221 | 13 | 225 | 4.8 | 12.9 | 0.00 | 2.16 | 0.53 | 89 | 1005.3 |
| 20260506060201 | 13 | 225 | 6.4 | 16.1 | 0.00 | 2.16 | 0.53 | 89 | 1005.1 |
| 20260506050953 | 12 | 225 | 6.4 | 16.1 | 0.00 | 2.24 | 0.53 | 89 | 1004.8 |
| 20260506044922 | 12 | 225 | 9.7 | 16.1 | 0.00 | 2.24 | 0.53 | 89 | 1004.7 |
| 20260506043849 | 12 | 225 | 8.0 | 14.5 | 0.00 | 2.24 | 0.53 | 89 | 1004.7 |
| 20260506042831 | 12 | 225 | 8.0 | 14.5 | 0.00 | 2.24 | 0.53 | 89 | 1004.6 |
| 20260506041826 | 12 | 225 | 8.0 | 14.5 | 0.00 | 2.24 | 0.53 | 89 | 1004.6 |
| 20260506040826 | 12 | 225 | 6.4 | 14.5 | 0.00 | 2.24 | 0.53 | 89 | 1004.5 |
| 20260506035756 | 12 | 225 | 6.4 | 14.5 | 0.00 | 2.24 | 0.53 | 89 | 1004.4 |
| 20260506034752 | 12 | 248 | 8.0 | 16.1 | 0.00 | 2.24 | 0.53 | 89 | 1004.3 |
| 20260506032655 | 12 | 225 | 6.4 | 12.9 | 0.00 | 2.24 | 0.53 | 89 | 1004.4 |
| 20260506031628 | 12 | 203 | 8.0 | 16.1 | 0.03 | 2.24 | 0.53 | 89 | 1004.4 |
| 20260506030609 | 12 | 203 | 8.0 | 17.7 | 0.03 | 2.24 | 0.53 | 89 | 1004.5 |
| 20260506025543 | 12 | 203 | 9.7 | 19.3 | 0.03 | 2.24 | 0.53 | 89 | 1004.5 |
| 20260506024519 | 12 | 203 | 6.4 | 14.5 | 0.03 | 2.24 | 0.53 | 89 | 1004.6 |
| 20260506023454 | 12 | 203 | 9.7 | 19.3 | 0.03 | 2.24 | 0.53 | 89 | 1004.7 |
| 20260506022437 | 12 | 203 | 8.0 | 14.5 | 0.00 | 2.21 | 0.51 | 89 | 1004.8 |
| 20260506020355 | 12 | 203 | 8.0 | 16.1 | 0.00 | 2.21 | 0.51 | 89 | 1004.9 |
| 20260506015352 | 12 | 180 | 4.8 | 14.5 | 0.00 | 2.21 | 0.51 | 89 | 1004.9 |
| 20260506014328 | 12 | 158 | 4.8 | 9.7 | 0.00 | 2.21 | 0.51 | 89 | 1004.9 |
| 20260506013259 | 12 | 158 | 4.8 | 9.7 | 0.00 | 2.21 | 0.51 | 89 | 1005.0 |
| 20260506012227 | 12 | 158 | 4.8 | 11.3 | 0.00 | 2.21 | 0.51 | 89 | 1005.0 |
| 20260506011225 | 12 | 158 | 4.8 | 11.3 | 0.00 | 2.21 | 0.51 | 89 | 1005.1 |
| 20260506010200 | 12 | 158 | 4.8 | 11.3 | 0.00 | 2.21 | 0.51 | 89 | 1005.2 |
| 20260506005159 | 12 | 158 | 3.2 | 8.0 | 0.00 | 2.21 | 0.51 | 89 | 1005.3 |
| 20260506003104 | 12 | 158 | 3.2 | 4.8 | 0.00 | 2.21 | 0.51 | 89 | 1005.4 |
| 20260506002104 | 12 | 158 | 1.6 | 6.4 | 0.00 | 2.21 | 0.51 | 89 | 1005.5 |
| 20260506001028 | 12 | 158 | 3.2 | 8.0 | 0.00 | 2.21 | 0.51 | 89 | 1005.6 |
| 20260506000026 | 12 | 180 | 3.2 | 8.0 | 0.05 | 2.21 | 0.51 | 89 | 1005.8 |
| 20260505234949 | 12 | 180 | 3.2 | 9.7 | 0.13 | 2.21 | 0.51 | 89 | 1005.8 |
| 20260505233931 | 12 | 180 | 4.8 | 9.7 | 0.20 | 2.21 | 0.51 | 89 | 1005.9 |
| 20260505232921 | 12 | 180 | 6.4 | 12.9 | 0.25 | 2.21 | 0.51 | 89 | 1005.9 |
| 20260505231914 | 12 | 203 | 8.0 | 12.9 | 0.36 | 2.21 | 0.51 | 89 | 1006.0 |
| 20260505230900 | 12 | 203 | 6.4 | 12.9 | 0.38 | 2.16 | 0.46 | 89 | 1005.9 |
| 20260505225829 | 12 | 203 | 3.2 | 12.9 | 0.41 | 2.11 | 0.41 | 89 | 1006.1 |
| 20260505223801 | 12 | 203 | 0.0 | 4.8 | 0.46 | 2.01 | 0.30 | 89 | 1005.9 |
| 20260505222744 | 13 | 68 | 0.0 | 4.8 | 0.43 | 1.93 | 0.23 | 89 | 1005.8 |
| 20260505221713 | 13 | 203 | 0.0 | 0.0 | 0.30 | 1.75 | 0.05 | 89 | 1005.9 |
| 20260505220650 | 13 | 203 | 0.0 | 0.0 | 0.30 | 1.68 | 0.00 | 89 | 1006.3 |
| 20260505215614 | 12 | 203 | 0.0 | 0.0 | 0.30 | 1.60 | 1.60 | 89 | 1006.5 |
| 20260505213513 | 12 | 203 | 0.0 | 0.0 | 0.36 | 1.50 | 1.50 | 89 | 1007.0 |
| 20260505212456 | 12 | 203 | 0.0 | 0.0 | 0.91 | 1.45 | 1.45 | 89 | 1007.1 |
| 20260505211433 | 12 | 203 | 1.6 | 8.0 | 1.14 | 1.35 | 1.35 | 89 | 1007.3 |
| 20260505210422 | 13 | 203 | 6.4 | 14.5 | 1.17 | 1.30 | 1.30 | 88 | 1007.5 |
| 20260505205357 | 13 | 203 | 8.0 | 19.3 | 1.07 | 1.19 | 1.19 | 88 | 1007.5 |
| 20260505204331 | 13 | 203 | 11.3 | 27.4 | 0.94 | 1.07 | 1.07 | 87 | 1007.5 |
| 20260505203308 | 15 | 225 | 11.3 | 29.0 | 0.51 | 0.64 | 0.64 | 84 | 1007.2 |
| 20260505202242 | 16 | 158 | 0.0 | 0.0 | 0.10 | 0.23 | 0.23 | 83 | 1007.1 |
| 20260505201218 | 16 | 135 | 0.0 | 0.0 | 0.03 | 0.15 | 0.15 | 82 | 1006.9 |
| 20260505200153 | 16 | 135 | 0.0 | 0.0 | 0.00 | 0.13 | 0.13 | 81 | 1006.8 |
| 20260505195152 | 16 | 68 | 3.2 | 9.7 | 0.00 | 0.13 | 0.13 | 81 | 1006.2 |
| 20260505194135 | 16 | 45 | 6.4 | 11.3 | 0.00 | 0.13 | 0.13 | 80 | 1005.9 |
| 20260505193111 | 16 | 45 | 8.0 | 14.5 | 0.00 | 0.13 | 0.13 | 80 | 1005.7 |
| 20260505192045 | 16 | 45 | 9.7 | 16.1 | 0.00 | 0.13 | 0.13 | 80 | 1005.8 |
| 20260505191017 | 16 | 45 | 8.0 | 14.5 | 0.00 | 0.13 | 0.13 | 79 | 1005.9 |
| 20260505185956 | 16 | 23 | 6.4 | 12.9 | 0.00 | 0.13 | 0.13 | 79 | 1005.9 |
| 20260505184922 | 17 | 23 | 4.8 | 12.9 | 0.00 | 0.13 | 0.13 | 78 | 1005.9 |
| 20260505183848 | 17 | 45 | 3.2 | 11.3 | 0.00 | 0.13 | 0.13 | 78 | 1006.1 |
| 20260505181805 | 17 | 23 | 3.2 | 11.3 | 0.00 | 0.13 | 0.13 | 77 | 1006.1 |
| 20260505180805 | 17 | 23 | 4.8 | 11.3 | 0.00 | 0.13 | 0.13 | 77 | 1006.0 |
| 20260505175803 | 17 | 23 | 6.4 | 12.9 | 0.00 | 0.13 | 0.13 | 77 | 1005.9 |
| 20260505174729 | 18 | 68 | 6.4 | 14.5 | 0.00 | 0.13 | 0.13 | 76 | 1006.3 |
| 20260505173658 | 18 | 45 | 4.8 | 11.3 | 0.00 | 0.13 | 0.13 | 76 | 1006.4 |
| 20260505172640 | 18 | 68 | 4.8 | 12.9 | 0.00 | 0.13 | 0.13 | 75 | 1006.4 |
| 20260505171634 | 18 | 45 | 4.8 | 12.9 | 0.00 | 0.13 | 0.13 | 75 | 1006.4 |
| 20260505170603 | 18 | 68 | 3.2 | 11.3 | 0.00 | 0.13 | 0.13 | 74 | 1006.5 |
| 20260505165530 | 18 | 45 | 6.4 | 12.9 | 0.00 | 0.13 | 0.13 | 74 | 1006.7 |
| 20260505164508 | 18 | 45 | 4.8 | 14.5 | 0.00 | 0.13 | 0.13 | 74 | 1006.8 |
| 20260505161354 | 19 | 45 | 9.7 | 22.5 | 0.00 | 0.13 | 0.13 | 72 | 1006.7 |
| 20260505160345 | 19 | 23 | 6.4 | 14.5 | 0.00 | 0.13 | 0.13 | 73 | 1006.7 |
| 20260505153218 | 20 | 23 | 6.4 | 16.1 | 0.00 | 0.13 | 0.13 | 69 | 1007.2 |
| 20260505152144 | 20 | 0 | 6.4 | 14.5 | 0.00 | 0.13 | 0.13 | 68 | 1007.2 |
| 20260505150115 | 21 | 0 | 6.4 | 16.1 | 0.00 | 0.13 | 0.13 | 68 | 1007.4 |
| 20260505124654 | 21 | 338 | 6.4 | 11.3 | 0.00 | 0.13 | 0.13 | 69 | 1008.4 |